Year,Month,Day,Hour,Minute,Value (Times are PST for temperature in C)
2016,12,05,00,00,3.10
2016,12,05,00,01,3.00
2016,12,05,00,02,3.00
2016,12,05,00,03,2.90
2016,12,05,00,04,2.90
2016,12,05,00,05,2.90
2016,12,05,00,06,2.80
2016,12,05,00,07,2.80
2016,12,05,00,08,2.80
2016,12,05,00,09,2.80
2016,12,05,00,10,2.80
2016,12,05,00,11,2.80
2016,12,05,00,12,2.70
2016,12,05,00,13,2.70
2016,12,05,00,14,2.70
2016,12,05,00,15,2.70
2016,12,05,00,16,2.70
2016,12,05,00,17,2.70
2016,12,05,00,18,2.70
2016,12,05,00,19,2.70
2016,12,05,00,20,2.70
2016,12,05,00,21,2.70
2016,12,05,00,22,2.70
2016,12,05,00,23,2.70
2016,12,05,00,24,2.70
2016,12,05,00,25,2.70
2016,12,05,00,26,2.70
2016,12,05,00,27,2.60
2016,12,05,00,28,2.60
2016,12,05,00,29,2.60
2016,12,05,00,30,2.50
2016,12,05,00,31,2.50
2016,12,05,00,32,2.40
2016,12,05,00,33,2.40
2016,12,05,00,34,2.40
2016,12,05,00,35,2.40
2016,12,05,00,36,2.30
2016,12,05,00,37,2.30
2016,12,05,00,38,2.30
2016,12,05,00,39,2.30
2016,12,05,00,40,2.20
2016,12,05,00,41,2.20
2016,12,05,00,42,2.20
2016,12,05,00,43,2.20
2016,12,05,00,44,2.20
2016,12,05,00,45,2.20
2016,12,05,00,46,2.20
2016,12,05,00,47,2.10
2016,12,05,00,48,2.10
2016,12,05,00,49,2.10
2016,12,05,00,50,2.10
2016,12,05,00,51,2.10
2016,12,05,00,52,2.10
2016,12,05,00,53,2.10
2016,12,05,00,54,2.10
2016,12,05,00,55,2.10
2016,12,05,00,56,2.10
2016,12,05,00,57,2.00
2016,12,05,00,58,2.00
2016,12,05,00,59,2.00
2016,12,05,01,00,2.00
2016,12,05,01,01,2.00
2016,12,05,01,02,2.00
2016,12,05,01,03,2.00
2016,12,05,01,04,2.00
2016,12,05,01,05,1.90
2016,12,05,01,06,1.90
2016,12,05,01,07,1.90
2016,12,05,01,08,1.90
2016,12,05,01,09,1.90
2016,12,05,01,10,1.90
2016,12,05,01,11,1.90
2016,12,05,01,12,1.80
2016,12,05,01,13,1.80
2016,12,05,01,14,1.80
2016,12,05,01,15,1.80
2016,12,05,01,16,1.80
2016,12,05,01,17,1.80
2016,12,05,01,18,1.80
2016,12,05,01,19,1.70
2016,12,05,01,20,1.70
2016,12,05,01,21,1.70
2016,12,05,01,22,1.70
2016,12,05,01,23,1.70
2016,12,05,01,24,1.70
2016,12,05,01,25,1.70
2016,12,05,01,26,1.70
2016,12,05,01,27,1.70
2016,12,05,01,28,1.70
2016,12,05,01,29,1.70
2016,12,05,01,30,1.70
2016,12,05,01,31,1.70
2016,12,05,01,32,1.70
2016,12,05,01,33,1.70
2016,12,05,01,34,1.60
2016,12,05,01,35,1.60
2016,12,05,01,36,1.60
2016,12,05,01,37,1.60
2016,12,05,01,38,1.60
2016,12,05,01,39,1.60
2016,12,05,01,40,1.60
2016,12,05,01,41,1.60
2016,12,05,01,42,1.60
2016,12,05,01,43,1.60
2016,12,05,01,44,1.60
2016,12,05,01,45,1.60
2016,12,05,01,46,1.60
2016,12,05,01,47,1.60
2016,12,05,01,48,1.60
2016,12,05,01,49,1.60
2016,12,05,01,50,1.60
2016,12,05,01,51,1.60
2016,12,05,01,52,1.60
2016,12,05,01,53,1.60
2016,12,05,01,54,1.60
2016,12,05,01,55,1.60
2016,12,05,01,56,1.60
2016,12,05,01,57,1.60
2016,12,05,01,58,1.60
2016,12,05,01,59,1.60
2016,12,05,02,00,1.60
2016,12,05,02,01,1.70
2016,12,05,02,02,1.70
2016,12,05,02,03,1.70
2016,12,05,02,04,1.70
2016,12,05,02,05,1.70
2016,12,05,02,06,1.70
2016,12,05,02,07,1.70
2016,12,05,02,08,1.70
2016,12,05,02,09,1.70
2016,12,05,02,10,1.70
2016,12,05,02,11,1.70
2016,12,05,02,12,1.70
2016,12,05,02,13,1.80
2016,12,05,02,14,1.80
2016,12,05,02,15,1.80
2016,12,05,02,16,1.80
2016,12,05,02,17,1.80
2016,12,05,02,18,1.80
2016,12,05,02,19,1.80
2016,12,05,02,20,1.80
2016,12,05,02,21,1.80
2016,12,05,02,22,1.80
2016,12,05,02,23,1.80
2016,12,05,02,24,1.80
2016,12,05,02,25,1.80
2016,12,05,02,26,1.80
2016,12,05,02,27,1.80
2016,12,05,02,28,1.80
2016,12,05,02,29,1.80
2016,12,05,02,30,1.80
2016,12,05,02,31,1.80
2016,12,05,02,32,1.80
2016,12,05,02,33,1.90
2016,12,05,02,34,1.90
2016,12,05,02,35,1.90
2016,12,05,02,36,1.90
2016,12,05,02,37,1.90
2016,12,05,02,38,1.90
2016,12,05,02,39,1.90
2016,12,05,02,40,1.90
2016,12,05,02,41,1.90
2016,12,05,02,42,1.90
2016,12,05,02,43,1.90
2016,12,05,02,44,1.90
2016,12,05,02,45,1.90
2016,12,05,02,46,1.90
2016,12,05,02,47,1.90
2016,12,05,02,48,1.90
2016,12,05,02,49,1.90
2016,12,05,02,50,1.90
2016,12,05,02,51,1.90
2016,12,05,02,52,1.90
2016,12,05,02,53,1.90
2016,12,05,02,54,1.90
2016,12,05,02,55,1.90
2016,12,05,02,56,1.90
2016,12,05,02,57,1.90
2016,12,05,02,58,2.00
2016,12,05,02,59,2.00
2016,12,05,03,00,2.00
2016,12,05,03,01,2.00
2016,12,05,03,02,2.00
2016,12,05,03,03,2.00
2016,12,05,03,04,2.10
2016,12,05,03,05,2.10
2016,12,05,03,06,2.10
2016,12,05,03,07,2.10
2016,12,05,03,08,2.10
2016,12,05,03,09,2.10
2016,12,05,03,10,2.10
2016,12,05,03,11,2.10
2016,12,05,03,12,2.10
2016,12,05,03,13,2.20
2016,12,05,03,14,2.20
2016,12,05,03,15,2.20
2016,12,05,03,16,2.20
2016,12,05,03,17,2.20
2016,12,05,03,18,2.20
2016,12,05,03,19,2.20
2016,12,05,03,20,2.20
2016,12,05,03,21,2.20
2016,12,05,03,22,2.20
2016,12,05,03,23,2.20
2016,12,05,03,24,2.20
2016,12,05,03,25,2.20
2016,12,05,03,26,2.10
2016,12,05,03,27,2.10
2016,12,05,03,28,2.10
2016,12,05,03,29,2.10
2016,12,05,03,30,2.10
2016,12,05,03,31,2.10
2016,12,05,03,32,2.10
2016,12,05,03,33,2.10
2016,12,05,03,34,2.20
2016,12,05,03,35,2.20
2016,12,05,03,36,2.20
2016,12,05,03,37,2.10
2016,12,05,03,38,2.10
2016,12,05,03,39,2.10
2016,12,05,03,40,2.10
2016,12,05,03,41,2.10
2016,12,05,03,42,2.10
2016,12,05,03,43,2.10
2016,12,05,03,44,2.10
2016,12,05,03,45,2.10
2016,12,05,03,46,2.00
2016,12,05,03,47,2.00
2016,12,05,03,48,2.00
2016,12,05,03,49,2.00
2016,12,05,03,50,2.00
2016,12,05,03,51,2.00
2016,12,05,03,52,2.00
2016,12,05,03,53,1.90
2016,12,05,03,54,1.90
2016,12,05,03,55,1.90
2016,12,05,03,56,1.90
2016,12,05,03,57,1.80
2016,12,05,03,58,1.80
2016,12,05,03,59,1.80
2016,12,05,04,00,1.80
2016,12,05,04,01,1.80
2016,12,05,04,02,1.70
2016,12,05,04,03,1.70
2016,12,05,04,04,1.70
2016,12,05,04,05,1.70
2016,12,05,04,06,1.70
2016,12,05,04,07,1.60
2016,12,05,04,08,1.60
2016,12,05,04,09,1.60
2016,12,05,04,10,1.60
2016,12,05,04,11,1.60
2016,12,05,04,12,1.60
2016,12,05,04,13,1.50
2016,12,05,04,14,1.50
2016,12,05,04,15,1.50
2016,12,05,04,16,1.50
2016,12,05,04,17,1.50
2016,12,05,04,18,1.60
2016,12,05,04,19,1.60
2016,12,05,04,20,1.60
2016,12,05,04,21,1.60
2016,12,05,04,22,1.60
2016,12,05,04,23,1.60
2016,12,05,04,24,1.60
2016,12,05,04,25,1.60
2016,12,05,04,26,1.60
2016,12,05,04,27,1.60
2016,12,05,04,28,1.60
2016,12,05,04,29,1.60
2016,12,05,04,30,1.60
2016,12,05,04,31,1.60
2016,12,05,04,32,1.60
2016,12,05,04,33,1.60
2016,12,05,04,34,1.60
2016,12,05,04,35,1.60
2016,12,05,04,36,1.60
2016,12,05,04,37,1.60
2016,12,05,04,38,1.60
2016,12,05,04,39,1.60
2016,12,05,04,40,1.50
2016,12,05,04,41,1.50
2016,12,05,04,42,1.50
2016,12,05,04,43,1.50
2016,12,05,04,44,1.50
2016,12,05,04,45,1.50
2016,12,05,04,46,1.50
2016,12,05,04,47,1.50
2016,12,05,04,48,1.60
2016,12,05,04,49,1.60
2016,12,05,04,50,1.60
2016,12,05,04,51,1.60
2016,12,05,04,52,1.60
2016,12,05,04,53,1.60
2016,12,05,04,54,1.70
2016,12,05,04,55,1.70
2016,12,05,04,56,1.70
2016,12,05,04,57,1.70
2016,12,05,04,58,1.70
2016,12,05,04,59,1.70
2016,12,05,05,00,1.80
2016,12,05,05,01,1.80
2016,12,05,05,02,1.80
2016,12,05,05,03,1.90
2016,12,05,05,04,1.90
2016,12,05,05,05,2.00
2016,12,05,05,06,2.00
2016,12,05,05,07,2.10
2016,12,05,05,08,2.10
2016,12,05,05,09,2.10
2016,12,05,05,10,2.10
2016,12,05,05,11,2.20
2016,12,05,05,12,2.20
2016,12,05,05,13,2.20
2016,12,05,05,14,2.20
2016,12,05,05,15,2.20
2016,12,05,05,16,2.20
2016,12,05,05,17,2.20
2016,12,05,05,18,2.20
2016,12,05,05,19,2.30
2016,12,05,05,20,2.30
2016,12,05,05,21,2.30
2016,12,05,05,22,2.30
2016,12,05,05,23,2.30
2016,12,05,05,24,2.30
2016,12,05,05,25,2.30
2016,12,05,05,26,2.30
2016,12,05,05,27,2.30
2016,12,05,05,28,2.20
2016,12,05,05,29,2.20
2016,12,05,05,30,2.20
2016,12,05,05,31,2.10
2016,12,05,05,32,2.10
2016,12,05,05,33,2.10
2016,12,05,05,34,2.10
2016,12,05,05,35,2.10
2016,12,05,05,36,2.00
2016,12,05,05,37,2.00
2016,12,05,05,38,1.90
2016,12,05,05,39,1.90
2016,12,05,05,40,2.00
2016,12,05,05,41,2.10
2016,12,05,05,42,2.10
2016,12,05,05,43,2.20
2016,12,05,05,44,2.20
2016,12,05,05,45,2.30
2016,12,05,05,46,2.30
2016,12,05,05,47,2.30
2016,12,05,05,48,2.30
2016,12,05,05,49,2.30
2016,12,05,05,50,2.30
2016,12,05,05,51,2.30
2016,12,05,05,52,2.30
2016,12,05,05,53,2.20
2016,12,05,05,54,2.20
2016,12,05,05,55,2.30
2016,12,05,05,56,2.30
2016,12,05,05,57,2.40
2016,12,05,05,58,2.50
2016,12,05,05,59,2.50
2016,12,05,06,00,2.60
2016,12,05,06,01,2.70
2016,12,05,06,02,2.70
2016,12,05,06,03,2.80
2016,12,05,06,04,2.80
2016,12,05,06,05,2.90
2016,12,05,06,06,2.90
2016,12,05,06,07,2.90
2016,12,05,06,08,3.00
2016,12,05,06,09,3.00
2016,12,05,06,10,3.00
2016,12,05,06,11,3.00
2016,12,05,06,12,3.00
2016,12,05,06,13,3.10
2016,12,05,06,14,3.10
2016,12,05,06,15,3.10
2016,12,05,06,16,3.10
2016,12,05,06,17,3.10
2016,12,05,06,18,3.10
2016,12,05,06,19,3.10
2016,12,05,06,20,3.10
2016,12,05,06,21,3.10
2016,12,05,06,22,3.20
2016,12,05,06,23,3.10
2016,12,05,06,24,3.10
2016,12,05,06,25,3.10
2016,12,05,06,26,3.00
2016,12,05,06,27,2.90
2016,12,05,06,28,2.80
2016,12,05,06,29,2.60
2016,12,05,06,30,2.50
2016,12,05,06,31,2.40
2016,12,05,06,32,2.20
2016,12,05,06,33,2.10
2016,12,05,06,34,2.00
2016,12,05,06,35,1.90
2016,12,05,06,36,1.90
2016,12,05,06,37,1.80
2016,12,05,06,38,1.70
2016,12,05,06,39,1.70
2016,12,05,06,40,1.70
2016,12,05,06,41,1.60
2016,12,05,06,42,1.60
2016,12,05,06,43,1.60
2016,12,05,06,44,1.50
2016,12,05,06,45,1.50
2016,12,05,06,46,1.50
2016,12,05,06,47,1.50
2016,12,05,06,48,1.40
2016,12,05,06,49,1.40
2016,12,05,06,50,1.40
2016,12,05,06,51,1.40
2016,12,05,06,52,1.40
2016,12,05,06,53,1.40
2016,12,05,06,54,1.40
2016,12,05,06,55,1.40
2016,12,05,06,56,1.40
2016,12,05,06,57,1.40
2016,12,05,06,58,1.40
2016,12,05,06,59,1.40
2016,12,05,07,00,1.40
2016,12,05,07,01,1.40
2016,12,05,07,02,1.40
2016,12,05,07,03,1.40
2016,12,05,07,04,1.40
2016,12,05,07,05,1.40
2016,12,05,07,06,1.40
2016,12,05,07,07,1.40
2016,12,05,07,08,1.40
2016,12,05,07,09,1.40
2016,12,05,07,10,1.40
2016,12,05,07,11,1.40
2016,12,05,07,12,1.40
2016,12,05,07,13,1.40
2016,12,05,07,14,1.40
2016,12,05,07,15,1.40
2016,12,05,07,16,1.40
2016,12,05,07,17,1.50
2016,12,05,07,18,1.50
2016,12,05,07,19,1.50
2016,12,05,07,20,1.50
2016,12,05,07,21,1.50
2016,12,05,07,22,1.60
2016,12,05,07,23,1.60
2016,12,05,07,24,1.60
2016,12,05,07,25,1.70
2016,12,05,07,26,1.70
2016,12,05,07,27,1.70
2016,12,05,07,28,1.70
2016,12,05,07,29,1.70
2016,12,05,07,30,1.70
2016,12,05,07,31,1.80
2016,12,05,07,32,1.80
2016,12,05,07,33,1.80
2016,12,05,07,34,1.80
2016,12,05,07,35,1.80
2016,12,05,07,36,1.80
2016,12,05,07,37,1.80
2016,12,05,07,38,1.80
2016,12,05,07,39,1.80
2016,12,05,07,40,1.90
2016,12,05,07,41,1.80
2016,12,05,07,42,1.90
2016,12,05,07,43,1.90
2016,12,05,07,44,1.90
2016,12,05,07,45,1.90
2016,12,05,07,46,1.90
2016,12,05,07,47,1.90
2016,12,05,07,48,1.90
2016,12,05,07,49,1.90
2016,12,05,07,50,1.90
2016,12,05,07,51,1.90
2016,12,05,07,52,1.90
2016,12,05,07,53,1.90
2016,12,05,07,54,1.90
2016,12,05,07,55,1.90
2016,12,05,07,56,1.90
2016,12,05,07,57,1.90
2016,12,05,07,58,1.90
2016,12,05,07,59,1.90
2016,12,05,08,00,1.90
2016,12,05,08,01,1.90
2016,12,05,08,02,1.90
2016,12,05,08,03,1.90
2016,12,05,08,04,2.00
2016,12,05,08,05,2.00
2016,12,05,08,06,2.00
2016,12,05,08,07,2.00
2016,12,05,08,08,2.10
2016,12,05,08,09,2.10
2016,12,05,08,10,2.10
2016,12,05,08,11,2.10
2016,12,05,08,12,2.10
2016,12,05,08,13,2.10
2016,12,05,08,14,2.20
2016,12,05,08,15,2.20
2016,12,05,08,16,2.20
2016,12,05,08,17,2.20
2016,12,05,08,18,2.20
2016,12,05,08,19,2.30
2016,12,05,08,20,2.30
2016,12,05,08,21,2.30
2016,12,05,08,22,2.30
2016,12,05,08,23,2.30
2016,12,05,08,24,2.30
2016,12,05,08,25,2.40
2016,12,05,08,26,2.40
2016,12,05,08,27,2.40
2016,12,05,08,28,2.40
2016,12,05,08,29,2.40
2016,12,05,08,30,2.40
2016,12,05,08,31,2.40
2016,12,05,08,32,2.40
2016,12,05,08,33,2.40
2016,12,05,08,34,2.40
2016,12,05,08,35,2.40
2016,12,05,08,36,2.40
2016,12,05,08,37,2.40
2016,12,05,08,38,2.50
2016,12,05,08,39,2.50
2016,12,05,08,40,2.50
2016,12,05,08,41,2.60
2016,12,05,08,42,2.60
2016,12,05,08,43,2.60
2016,12,05,08,44,2.60
2016,12,05,08,45,2.70
2016,12,05,08,46,2.70
2016,12,05,08,47,2.70
2016,12,05,08,48,2.70
2016,12,05,08,49,2.80
2016,12,05,08,50,2.80
2016,12,05,08,51,2.80
2016,12,05,08,52,2.80
2016,12,05,08,53,2.90
2016,12,05,08,54,2.90
2016,12,05,08,55,2.90
2016,12,05,08,56,2.90
2016,12,05,08,57,2.90
2016,12,05,08,58,2.90
2016,12,05,08,59,2.90
2016,12,05,09,00,2.90
2016,12,05,09,01,2.90
2016,12,05,09,02,2.90
2016,12,05,09,03,2.90
2016,12,05,09,04,2.90
2016,12,05,09,05,2.90
2016,12,05,09,06,2.80
2016,12,05,09,07,2.80
2016,12,05,09,08,2.80
2016,12,05,09,09,2.80
2016,12,05,09,10,2.80
2016,12,05,09,11,2.80
2016,12,05,09,12,2.80
2016,12,05,09,13,2.80
2016,12,05,09,14,2.80
2016,12,05,09,15,2.80
2016,12,05,09,16,2.80
2016,12,05,09,17,2.80
2016,12,05,09,18,2.80
2016,12,05,09,19,2.80
2016,12,05,09,20,2.80
2016,12,05,09,21,2.70
2016,12,05,09,22,2.70
2016,12,05,09,23,2.70
2016,12,05,09,24,2.70
2016,12,05,09,25,2.70
2016,12,05,09,26,2.80
2016,12,05,09,27,2.80
2016,12,05,09,28,2.80
2016,12,05,09,29,2.80
2016,12,05,09,30,2.90
2016,12,05,09,31,2.90
2016,12,05,09,32,2.90
2016,12,05,09,33,3.00
2016,12,05,09,34,3.00
2016,12,05,09,35,3.00
2016,12,05,09,36,3.10
2016,12,05,09,37,3.10
2016,12,05,09,38,3.10
2016,12,05,09,39,3.10
2016,12,05,09,40,3.10
2016,12,05,09,41,3.10
2016,12,05,09,42,3.10
2016,12,05,09,43,3.10
2016,12,05,09,44,3.20
2016,12,05,09,45,3.20
2016,12,05,09,46,3.20
2016,12,05,09,47,3.20
2016,12,05,09,48,3.30
2016,12,05,09,49,3.30
2016,12,05,09,50,3.30
2016,12,05,09,51,3.30
2016,12,05,09,52,3.30
2016,12,05,09,53,3.30
2016,12,05,09,54,3.30
2016,12,05,09,55,3.40
2016,12,05,09,56,3.40
2016,12,05,09,57,3.40
2016,12,05,09,58,3.40
2016,12,05,09,59,3.40
2016,12,05,10,00,3.40
2016,12,05,10,01,3.40
2016,12,05,10,02,3.40
2016,12,05,10,03,3.50
2016,12,05,10,04,3.50
2016,12,05,10,05,3.50
2016,12,05,10,06,3.50
2016,12,05,10,07,3.50
2016,12,05,10,08,3.50
2016,12,05,10,09,3.50
2016,12,05,10,10,3.50
2016,12,05,10,11,3.60
2016,12,05,10,12,3.60
2016,12,05,10,13,3.60
2016,12,05,10,14,3.60
2016,12,05,10,15,3.70
2016,12,05,10,16,3.70
2016,12,05,10,17,3.70
2016,12,05,10,18,3.70
2016,12,05,10,19,3.70
2016,12,05,10,20,3.80
2016,12,05,10,21,3.80
2016,12,05,10,22,3.80
2016,12,05,10,23,3.80
2016,12,05,10,24,3.80
2016,12,05,10,25,3.90
2016,12,05,10,26,3.90
2016,12,05,10,27,3.90
2016,12,05,10,28,3.90
2016,12,05,10,29,3.90
2016,12,05,10,30,4.00
2016,12,05,10,31,4.00
2016,12,05,10,32,4.00
2016,12,05,10,33,4.00
2016,12,05,10,34,4.00
2016,12,05,10,35,4.00
2016,12,05,10,36,4.00
2016,12,05,10,37,4.00
2016,12,05,10,38,4.10
2016,12,05,10,39,4.10
2016,12,05,10,40,4.10
2016,12,05,10,41,4.10
2016,12,05,10,42,4.10
2016,12,05,10,43,4.10
2016,12,05,10,44,4.10
2016,12,05,10,45,4.10
2016,12,05,10,46,4.20
2016,12,05,10,47,4.20
2016,12,05,10,48,4.20
2016,12,05,10,49,4.20
2016,12,05,10,50,4.20
2016,12,05,10,51,4.20
2016,12,05,10,52,4.20
2016,12,05,10,53,4.20
2016,12,05,10,54,4.10
2016,12,05,10,55,4.10
2016,12,05,10,56,4.20
2016,12,05,10,57,4.20
2016,12,05,10,58,4.20
2016,12,05,10,59,4.20
2016,12,05,11,00,4.20
2016,12,05,11,01,4.20
2016,12,05,11,02,4.20
2016,12,05,11,03,4.20
2016,12,05,11,04,4.20
2016,12,05,11,05,4.20
2016,12,05,11,06,4.20
2016,12,05,11,07,4.20
2016,12,05,11,08,4.20
2016,12,05,11,09,4.30
2016,12,05,11,10,4.30
2016,12,05,11,11,4.30
2016,12,05,11,12,4.30
2016,12,05,11,13,4.30
2016,12,05,11,14,4.40
2016,12,05,11,15,4.40
2016,12,05,11,16,4.40
2016,12,05,11,17,4.40
2016,12,05,11,18,4.40
2016,12,05,11,19,4.40
2016,12,05,11,20,4.50
2016,12,05,11,21,4.50
2016,12,05,11,22,4.50
2016,12,05,11,23,4.60
2016,12,05,11,24,4.60
2016,12,05,11,25,4.60
2016,12,05,11,26,4.60
2016,12,05,11,27,4.60
2016,12,05,11,28,4.70
2016,12,05,11,29,4.70
2016,12,05,11,30,4.70
2016,12,05,11,31,4.70
2016,12,05,11,32,4.70
2016,12,05,11,33,4.70
2016,12,05,11,34,4.70
2016,12,05,11,35,4.70
2016,12,05,11,36,4.70
2016,12,05,11,37,4.80
2016,12,05,11,38,4.80
2016,12,05,11,39,4.80
2016,12,05,11,40,4.80
2016,12,05,11,41,4.80
2016,12,05,11,42,4.80
2016,12,05,11,43,4.80
2016,12,05,11,44,4.80
2016,12,05,11,45,4.80
2016,12,05,11,46,4.80
2016,12,05,11,47,4.90
2016,12,05,11,48,4.90
2016,12,05,11,49,4.90
2016,12,05,11,50,4.90
2016,12,05,11,51,4.90
2016,12,05,11,52,4.90
2016,12,05,11,53,4.90
2016,12,05,11,54,4.90
2016,12,05,11,55,4.90
2016,12,05,11,56,4.90
2016,12,05,11,57,4.90
2016,12,05,11,58,5.00
2016,12,05,11,59,5.00
2016,12,05,12,00,5.00
2016,12,05,12,01,5.00
2016,12,05,12,02,5.00
2016,12,05,12,03,5.10
2016,12,05,12,04,5.10
2016,12,05,12,05,5.10
2016,12,05,12,06,5.20
2016,12,05,12,07,5.20
2016,12,05,12,08,5.10
2016,12,05,12,09,5.10
2016,12,05,12,10,5.10
2016,12,05,12,11,5.10
2016,12,05,12,12,5.10
2016,12,05,12,13,5.10
2016,12,05,12,14,5.10
2016,12,05,12,15,5.10
2016,12,05,12,16,5.20
2016,12,05,12,17,5.20
2016,12,05,12,18,5.20
2016,12,05,12,19,5.20
2016,12,05,12,20,5.30
2016,12,05,12,21,5.30
2016,12,05,12,22,5.30
2016,12,05,12,23,5.30
2016,12,05,12,24,5.30
2016,12,05,12,25,5.40
2016,12,05,12,26,5.40
2016,12,05,12,27,5.40
2016,12,05,12,28,5.50
2016,12,05,12,29,5.50
2016,12,05,12,30,5.50
2016,12,05,12,31,5.50
2016,12,05,12,32,5.50
2016,12,05,12,33,5.50
2016,12,05,12,34,5.60
2016,12,05,12,35,5.60
2016,12,05,12,36,5.60
2016,12,05,12,37,5.60
2016,12,05,12,38,5.60
2016,12,05,12,39,5.60
2016,12,05,12,40,5.60
2016,12,05,12,41,5.60
2016,12,05,12,42,5.60
2016,12,05,12,43,5.70
2016,12,05,12,44,5.70
2016,12,05,12,45,5.70
2016,12,05,12,46,5.70
2016,12,05,12,47,5.70
2016,12,05,12,48,5.70
2016,12,05,12,49,5.80
2016,12,05,12,50,5.80
2016,12,05,12,51,5.80
2016,12,05,12,52,5.80
2016,12,05,12,53,5.80
2016,12,05,12,54,5.80
2016,12,05,12,55,5.90
2016,12,05,12,56,5.90
2016,12,05,12,57,6.00
2016,12,05,12,58,6.00
2016,12,05,12,59,6.10
2016,12,05,13,00,6.10
2016,12,05,13,01,6.10
2016,12,05,13,02,6.10
2016,12,05,13,03,6.10
2016,12,05,13,04,6.10
2016,12,05,13,05,6.10
2016,12,05,13,06,6.10
2016,12,05,13,07,6.00
2016,12,05,13,08,6.00
2016,12,05,13,09,6.00
2016,12,05,13,10,6.00
2016,12,05,13,11,6.00
2016,12,05,13,12,5.90
2016,12,05,13,13,5.90
2016,12,05,13,14,5.80
2016,12,05,13,15,5.80
2016,12,05,13,16,5.80
2016,12,05,13,17,5.80
2016,12,05,13,18,5.70
2016,12,05,13,19,5.70
2016,12,05,13,20,5.70
2016,12,05,13,21,5.70
2016,12,05,13,22,5.70
2016,12,05,13,23,5.70
2016,12,05,13,24,5.70
2016,12,05,13,25,5.60
2016,12,05,13,26,5.70
2016,12,05,13,27,5.70
2016,12,05,13,28,5.60
2016,12,05,13,29,5.60
2016,12,05,13,30,5.60
2016,12,05,13,31,5.60
2016,12,05,13,32,5.60
2016,12,05,13,33,5.60
2016,12,05,13,34,5.60
2016,12,05,13,35,5.50
2016,12,05,13,36,5.50
2016,12,05,13,37,5.50
2016,12,05,13,38,5.50
2016,12,05,13,39,5.50
2016,12,05,13,40,5.50
2016,12,05,13,41,5.50
2016,12,05,13,42,5.40
2016,12,05,13,43,5.40
2016,12,05,13,44,5.40
2016,12,05,13,45,5.40
2016,12,05,13,46,5.40
2016,12,05,13,47,5.30
2016,12,05,13,48,5.20
2016,12,05,13,49,5.00
2016,12,05,13,50,4.90
2016,12,05,13,51,4.80
2016,12,05,13,52,4.60
2016,12,05,13,53,4.40
2016,12,05,13,54,4.30
2016,12,05,13,55,4.20
2016,12,05,13,56,4.10
2016,12,05,13,57,4.00
2016,12,05,13,58,3.90
2016,12,05,13,59,3.90
2016,12,05,14,00,3.80
2016,12,05,14,01,3.80
2016,12,05,14,02,3.70
2016,12,05,14,03,3.70
2016,12,05,14,04,3.60
2016,12,05,14,05,3.60
2016,12,05,14,06,3.50
2016,12,05,14,07,3.50
2016,12,05,14,08,3.50
2016,12,05,14,09,3.50
2016,12,05,14,10,3.40
2016,12,05,14,11,3.40
2016,12,05,14,12,3.40
2016,12,05,14,13,3.40
2016,12,05,14,14,3.40
2016,12,05,14,15,3.30
2016,12,05,14,16,3.30
2016,12,05,14,17,3.30
2016,12,05,14,18,3.30
2016,12,05,14,19,3.30
2016,12,05,14,20,3.30
2016,12,05,14,21,3.30
2016,12,05,14,22,3.30
2016,12,05,14,23,3.30
2016,12,05,14,24,3.30
2016,12,05,14,25,3.30
2016,12,05,14,26,3.30
2016,12,05,14,27,3.30
2016,12,05,14,28,3.30
2016,12,05,14,29,3.30
2016,12,05,14,30,3.30
2016,12,05,14,31,3.30
2016,12,05,14,32,3.30
2016,12,05,14,33,3.30
2016,12,05,14,34,3.30
2016,12,05,14,35,3.30
2016,12,05,14,36,3.30
2016,12,05,14,37,3.30
2016,12,05,14,38,3.40
2016,12,05,14,39,3.40
2016,12,05,14,40,3.40
2016,12,05,14,41,3.50
2016,12,05,14,42,3.50
2016,12,05,14,43,3.50
2016,12,05,14,44,3.50
2016,12,05,14,45,3.60
2016,12,05,14,46,3.60
2016,12,05,14,47,3.60
2016,12,05,14,48,3.60
2016,12,05,14,49,3.60
2016,12,05,14,50,3.60
2016,12,05,14,51,3.60
2016,12,05,14,52,3.60
2016,12,05,14,53,3.60
2016,12,05,14,54,3.50
2016,12,05,14,55,3.50
2016,12,05,14,56,3.40
2016,12,05,14,57,3.40
2016,12,05,14,58,3.30
2016,12,05,14,59,3.30
2016,12,05,15,00,3.20
2016,12,05,15,01,3.20
2016,12,05,15,02,3.10
2016,12,05,15,03,3.10
2016,12,05,15,04,3.00
2016,12,05,15,05,3.00
2016,12,05,15,06,3.00
2016,12,05,15,07,2.90
2016,12,05,15,08,2.90
2016,12,05,15,09,2.90
2016,12,05,15,10,2.90
2016,12,05,15,11,2.90
2016,12,05,15,12,2.90
2016,12,05,15,13,2.90
2016,12,05,15,14,2.90
2016,12,05,15,15,2.90
2016,12,05,15,16,2.90
2016,12,05,15,17,2.90
2016,12,05,15,18,3.00
2016,12,05,15,19,3.00
2016,12,05,15,20,3.00
2016,12,05,15,21,3.00
2016,12,05,15,22,3.00
2016,12,05,15,23,3.00
2016,12,05,15,24,3.00
2016,12,05,15,25,2.90
2016,12,05,15,26,2.90
2016,12,05,15,27,3.00
2016,12,05,15,28,3.00
2016,12,05,15,29,3.00
2016,12,05,15,30,3.00
2016,12,05,15,31,3.00
2016,12,05,15,32,3.00
2016,12,05,15,33,3.00
2016,12,05,15,34,2.90
2016,12,05,15,35,2.90
2016,12,05,15,36,2.90
2016,12,05,15,37,2.90
2016,12,05,15,38,2.90
2016,12,05,15,39,2.90
2016,12,05,15,40,2.90
2016,12,05,15,41,2.90
2016,12,05,15,42,2.90
2016,12,05,15,43,2.90
2016,12,05,15,44,2.90
2016,12,05,15,45,2.90
2016,12,05,15,46,2.80
2016,12,05,15,47,2.80
2016,12,05,15,48,2.80
2016,12,05,15,49,2.80
2016,12,05,15,50,2.80
2016,12,05,15,51,2.80
2016,12,05,15,52,2.80
2016,12,05,15,53,2.80
2016,12,05,15,54,2.80
2016,12,05,15,55,2.80
2016,12,05,15,56,2.80
2016,12,05,15,57,2.80
2016,12,05,15,58,2.80
2016,12,05,15,59,2.80
2016,12,05,16,00,2.80
2016,12,05,16,01,2.80
2016,12,05,16,02,2.80
2016,12,05,16,03,2.80
2016,12,05,16,04,2.80
2016,12,05,16,05,2.90
2016,12,05,16,06,2.90
2016,12,05,16,07,2.90
2016,12,05,16,08,2.90
2016,12,05,16,09,2.80
2016,12,05,16,10,2.90
2016,12,05,16,11,2.80
2016,12,05,16,12,2.80
2016,12,05,16,13,2.80
2016,12,05,16,14,2.80
2016,12,05,16,15,2.80
2016,12,05,16,16,2.80
2016,12,05,16,17,2.70
2016,12,05,16,18,2.70
2016,12,05,16,19,2.70
2016,12,05,16,20,2.60
2016,12,05,16,21,2.60
2016,12,05,16,22,2.60
2016,12,05,16,23,2.50
2016,12,05,16,24,2.50
2016,12,05,16,25,2.40
2016,12,05,16,26,2.40
2016,12,05,16,27,2.40
2016,12,05,16,28,2.40
2016,12,05,16,29,2.40
2016,12,05,16,30,2.40
2016,12,05,16,31,2.40
2016,12,05,16,32,2.30
2016,12,05,16,33,2.30
2016,12,05,16,34,2.30
2016,12,05,16,35,2.30
2016,12,05,16,36,2.30
2016,12,05,16,37,2.30
2016,12,05,16,38,2.30
2016,12,05,16,39,2.30
2016,12,05,16,40,2.20
2016,12,05,16,41,2.20
2016,12,05,16,42,2.20
2016,12,05,16,43,2.20
2016,12,05,16,44,2.20
2016,12,05,16,45,2.10
2016,12,05,16,46,2.10
2016,12,05,16,47,2.10
2016,12,05,16,48,2.10
2016,12,05,16,49,2.10
2016,12,05,16,50,2.10
2016,12,05,16,51,2.10
2016,12,05,16,52,2.10
2016,12,05,16,53,2.10
2016,12,05,16,54,2.10
2016,12,05,16,55,2.10
2016,12,05,16,56,2.10
2016,12,05,16,57,2.10
2016,12,05,16,58,2.10
2016,12,05,16,59,2.10
2016,12,05,17,00,2.10
2016,12,05,17,01,2.10
2016,12,05,17,02,2.10
2016,12,05,17,03,2.10
2016,12,05,17,04,2.10
2016,12,05,17,05,2.10
2016,12,05,17,06,2.10
2016,12,05,17,07,2.00
2016,12,05,17,08,2.00
2016,12,05,17,09,2.00
2016,12,05,17,10,1.90
2016,12,05,17,11,1.90
2016,12,05,17,12,1.90
2016,12,05,17,13,1.90
2016,12,05,17,14,1.90
2016,12,05,17,15,1.90
2016,12,05,17,16,1.90
2016,12,05,17,17,1.90
2016,12,05,17,18,1.90
2016,12,05,17,19,1.90
2016,12,05,17,20,1.90
2016,12,05,17,21,1.90
2016,12,05,17,22,1.90
2016,12,05,17,23,1.90
2016,12,05,17,24,1.90
2016,12,05,17,25,1.90
2016,12,05,17,26,1.90
2016,12,05,17,27,1.90
2016,12,05,17,28,1.90
2016,12,05,17,29,1.90
2016,12,05,17,30,2.00
2016,12,05,17,31,2.00
2016,12,05,17,32,2.00
2016,12,05,17,33,2.00
2016,12,05,17,34,2.00
2016,12,05,17,35,2.00
2016,12,05,17,36,2.00
2016,12,05,17,37,2.00
2016,12,05,17,38,2.10
2016,12,05,17,39,2.10
2016,12,05,17,40,2.10
2016,12,05,17,41,2.10
2016,12,05,17,42,2.20
2016,12,05,17,43,2.20
2016,12,05,17,44,2.20
2016,12,05,17,45,2.30
2016,12,05,17,46,2.30
2016,12,05,17,47,2.30
2016,12,05,17,48,2.40
2016,12,05,17,49,2.40
2016,12,05,17,50,2.40
2016,12,05,17,51,2.40
2016,12,05,17,52,2.40
2016,12,05,17,53,2.50
2016,12,05,17,54,2.50
2016,12,05,17,55,2.50
2016,12,05,17,56,2.50
2016,12,05,17,57,2.60
2016,12,05,17,58,2.60
2016,12,05,17,59,2.60
2016,12,05,18,00,2.60
2016,12,05,18,01,2.60
2016,12,05,18,02,2.60
2016,12,05,18,03,2.60
2016,12,05,18,04,2.60
2016,12,05,18,05,2.60
2016,12,05,18,06,2.60